This demonstration page uses our WeatherBlox Daily Observations layout. Learn more.

Left ArrowRight Arrow

41.12389, -100.76542

Hourly Observations for February 19, 2017

Temp ( °F °C ) Dew Point ( °F °C ) Humidity (%) Winds ( mph kmh ) Pressure ( in mb ) Visibility ( mi km ) Precip ( " mm )
12:53 am 00:53 Clear 39 3.9 33 0.6 79 79 ESE 7 11 29.72 1007 10 16 0.00 0.00
1:53 am 01:53 Clear 38 3.3 32 0 79 79 ESE 8 13 29.71 1006 10 16 0.00 0.00
2:53 am 02:53 Clear 46 7.8 34 1.1 63 63 SSE 6 9 29.70 1006 10 16 0.00 0.00
3:53 am 03:53 Clear 48 8.9 35 1.7 61 61 SE 7 11 29.69 1006 10 16 0.00 0.00
4:53 am 04:53 Clear 46 7.8 35 1.7 66 66 ESE 8 13 29.68 1005 10 16 0.00 0.00
5:53 am 05:53 Clear 47 8.3 36 2.2 66 66 ESE 13 20 29.66 1004 10 16 0.00 0.00
6:53 am 06:53 Clear 45 7.2 36 2.2 71 71 ESE 7 11 29.71 1006 10 16 0.00 0.00
7:53 am 07:53 Sunny 47 8.3 38 3.3 71 71 S 13 20 29.72 1006 10 16 0.00 0.00
8:53 am 08:53 Sunny 49 9.4 40 4.4 71 71 SSE 10 17 29.73 1007 10 16 0.00 0.00
9:53 am 09:53 Sunny 51 10.6 43 6.1 74 74 S 7 11 29.73 1007 10 16 0.00 0.00
10:53 am 10:53 Sunny 57 13.9 43 6.1 60 60 S 10 17 29.72 1006 10 16 0.00 0.00
11:53 am 11:53 Sunny 62 16.7 41 5 46 46 SSW 15 24 29.70 1006 10 16 0.00 0.00
12:53 pm 12:53 Sunny 63 17.2 42 5.6 47 47 S 16 26 29.68 1005 10 16 0.00 0.00
1:53 pm 13:53 Sunny 62 16.7 42 5.6 48 48 S 15 24 29.68 1005 10 16 0.00 0.00
2:53 pm 14:53 Mostly Sunny 63 17.2 43 6.1 48 48 SSE 9 15 29.65 1004 10 16 0.00 0.00
3:53 pm 15:53 Mostly Sunny 66 18.9 43 6.1 43 43 SSE 9 15 29.60 1003 10 16 0.00 0.00
4:53 pm 16:53 Sunny 68 20 42 5.6 39 39 SSE 12 19 29.60 1002 10 16 0.00 0.00
5:53 pm 17:53 Partly Cloudy with Thunderstorms 67 19.4 45 7.2 45 45 SSE 12 19 29.59 1002 7 11 0.00 0.03
6:35 pm 18:35 Mostly Cloudy 59 15 49 9.4 69 69 ESE 8 13 29.56 1001 10 16 0.10 2.54
6:53 pm 18:53 Mostly Clear 58 14.4 49 9.4 72 72 SE 8 13 29.61 1003 10 16 0.10 2.54
7:53 pm 19:53 Clear 63 17.2 50 10 63 63 S 14 22 29.61 1003 10 16 0.00 0.00
8:53 pm 20:53 Clear 62 16.7 48 8.9 60 60 SSE 14 22 29.60 1002 10 16 0.00 0.00
9:53 pm 21:53 Clear 60 15.6 48 8.9 65 65 SE 16 26 29.58 1002 10 16 0.00 0.00
10:53 pm 22:53 Clear 57 13.9 49 9.4 74 74 SSE 12 19 29.60 1002 10 16 0.00 0.00
11:53 pm 23:53 Clear 54 12.2 48 8.9 80 80 E 5 7 29.64 1004 9 14 0.00 0.00

Powered by AerisWeather